Year,Month,Day,Hour,Minute,Value (Times are PST for temperature in C)
2014,11,19,00,00,1.80
2014,11,19,00,01,1.80
2014,11,19,00,02,1.80
2014,11,19,00,03,1.80
2014,11,19,00,04,1.80
2014,11,19,00,05,1.80
2014,11,19,00,06,1.80
2014,11,19,00,07,1.80
2014,11,19,00,08,1.70
2014,11,19,00,09,1.70
2014,11,19,00,10,1.70
2014,11,19,00,11,1.70
2014,11,19,00,12,1.60
2014,11,19,00,13,1.60
2014,11,19,00,14,1.60
2014,11,19,00,15,1.60
2014,11,19,00,16,1.60
2014,11,19,00,17,1.60
2014,11,19,00,18,1.60
2014,11,19,00,19,1.50
2014,11,19,00,20,1.50
2014,11,19,00,21,1.40
2014,11,19,00,22,1.40
2014,11,19,00,23,1.40
2014,11,19,00,24,1.30
2014,11,19,00,25,1.30
2014,11,19,00,26,1.30
2014,11,19,00,27,1.30
2014,11,19,00,28,1.30
2014,11,19,00,29,1.30
2014,11,19,00,30,1.30
2014,11,19,00,31,1.30
2014,11,19,00,32,1.30
2014,11,19,00,33,1.30
2014,11,19,00,34,1.30
2014,11,19,00,35,1.30
2014,11,19,00,36,1.30
2014,11,19,00,37,1.30
2014,11,19,00,38,1.30
2014,11,19,00,39,1.30
2014,11,19,00,40,1.30
2014,11,19,00,41,1.30
2014,11,19,00,42,1.30
2014,11,19,00,43,1.40
2014,11,19,00,44,1.40
2014,11,19,00,45,1.50
2014,11,19,00,46,1.50
2014,11,19,00,47,1.60
2014,11,19,00,48,1.60
2014,11,19,00,49,1.60
2014,11,19,00,50,1.60
2014,11,19,00,51,1.60
2014,11,19,00,52,1.50
2014,11,19,00,53,1.50
2014,11,19,00,54,1.40
2014,11,19,00,55,1.40
2014,11,19,00,56,1.40
2014,11,19,00,57,1.40
2014,11,19,00,58,1.40
2014,11,19,00,59,1.40
2014,11,19,01,00,1.50
2014,11,19,01,01,1.50
2014,11,19,01,02,1.60
2014,11,19,01,03,1.60
2014,11,19,01,04,1.60
2014,11,19,01,05,1.60
2014,11,19,01,06,1.60
2014,11,19,01,07,1.60
2014,11,19,01,08,1.60
2014,11,19,01,09,1.60
2014,11,19,01,10,1.60
2014,11,19,01,11,1.60
2014,11,19,01,12,1.60
2014,11,19,01,13,1.70
2014,11,19,01,14,1.70
2014,11,19,01,15,1.70
2014,11,19,01,16,1.80
2014,11,19,01,17,1.80
2014,11,19,01,18,1.80
2014,11,19,01,19,1.90
2014,11,19,01,20,1.90
2014,11,19,01,21,1.80
2014,11,19,01,22,1.80
2014,11,19,01,23,1.80
2014,11,19,01,24,1.70
2014,11,19,01,25,1.70
2014,11,19,01,26,1.70
2014,11,19,01,27,1.60
2014,11,19,01,28,1.60
2014,11,19,01,29,1.60
2014,11,19,01,30,1.60
2014,11,19,01,31,1.60
2014,11,19,01,32,1.70
2014,11,19,01,33,1.70
2014,11,19,01,34,1.70
2014,11,19,01,35,1.70
2014,11,19,01,36,1.80
2014,11,19,01,37,1.80
2014,11,19,01,38,1.80
2014,11,19,01,39,1.90
2014,11,19,01,40,1.90
2014,11,19,01,41,1.90
2014,11,19,01,42,1.90
2014,11,19,01,43,1.90
2014,11,19,01,44,1.90
2014,11,19,01,45,1.80
2014,11,19,01,46,1.80
2014,11,19,01,47,1.80
2014,11,19,01,48,1.80
2014,11,19,01,49,1.80
2014,11,19,01,50,1.90
2014,11,19,01,51,1.90
2014,11,19,01,52,1.90
2014,11,19,01,53,2.00
2014,11,19,01,54,2.00
2014,11,19,01,55,2.10
2014,11,19,01,56,2.10
2014,11,19,01,57,2.20
2014,11,19,01,58,2.20
2014,11,19,01,59,2.20
2014,11,19,02,00,2.20
2014,11,19,02,01,2.30
2014,11,19,02,02,2.20
2014,11,19,02,03,2.20
2014,11,19,02,04,2.20
2014,11,19,02,05,2.20
2014,11,19,02,06,2.20
2014,11,19,02,07,2.20
2014,11,19,02,08,2.20
2014,11,19,02,09,2.20
2014,11,19,02,10,2.20
2014,11,19,02,11,2.20
2014,11,19,02,12,2.20
2014,11,19,02,13,2.20
2014,11,19,02,14,2.20
2014,11,19,02,15,2.20
2014,11,19,02,16,2.20
2014,11,19,02,17,2.20
2014,11,19,02,18,2.20
2014,11,19,02,19,2.30
2014,11,19,02,20,2.30
2014,11,19,02,21,2.30
2014,11,19,02,22,2.30
2014,11,19,02,23,2.30
2014,11,19,02,24,2.30
2014,11,19,02,25,2.30
2014,11,19,02,26,2.30
2014,11,19,02,27,2.30
2014,11,19,02,28,2.30
2014,11,19,02,29,2.30
2014,11,19,02,30,2.30
2014,11,19,02,31,2.30
2014,11,19,02,32,2.30
2014,11,19,02,33,2.30
2014,11,19,02,34,2.30
2014,11,19,02,35,2.30
2014,11,19,02,36,2.30
2014,11,19,02,37,2.30
2014,11,19,02,38,2.30
2014,11,19,02,39,2.40
2014,11,19,02,40,2.40
2014,11,19,02,41,2.40
2014,11,19,02,42,2.40
2014,11,19,02,43,2.50
2014,11,19,02,44,2.50
2014,11,19,02,45,2.50
2014,11,19,02,46,2.60
2014,11,19,02,47,2.60
2014,11,19,02,48,2.60
2014,11,19,02,49,2.60
2014,11,19,02,50,2.60
2014,11,19,02,51,2.50
2014,11,19,02,52,2.50
2014,11,19,02,53,2.50
2014,11,19,02,54,2.50
2014,11,19,02,55,2.50
2014,11,19,02,56,2.50
2014,11,19,02,57,2.50
2014,11,19,02,58,2.50
2014,11,19,02,59,2.50
2014,11,19,03,00,2.50
2014,11,19,03,01,2.50
2014,11,19,03,02,2.40
2014,11,19,03,03,2.40
2014,11,19,03,04,2.40
2014,11,19,03,05,2.40
2014,11,19,03,06,2.40
2014,11,19,03,07,2.40
2014,11,19,03,08,2.40
2014,11,19,03,09,2.40
2014,11,19,03,10,2.40
2014,11,19,03,11,2.50
2014,11,19,03,12,2.60
2014,11,19,03,13,2.60
2014,11,19,03,14,2.70
2014,11,19,03,15,2.70
2014,11,19,03,16,2.80
2014,11,19,03,17,2.80
2014,11,19,03,18,2.80
2014,11,19,03,19,2.90
2014,11,19,03,20,2.90
2014,11,19,03,21,2.90
2014,11,19,03,22,2.80
2014,11,19,03,23,2.80
2014,11,19,03,24,2.70
2014,11,19,03,25,2.70
2014,11,19,03,26,2.70
2014,11,19,03,27,2.70
2014,11,19,03,28,2.70
2014,11,19,03,29,2.60
2014,11,19,03,30,2.70
2014,11,19,03,31,2.80
2014,11,19,03,32,2.90
2014,11,19,03,33,3.00
2014,11,19,03,34,3.10
2014,11,19,03,35,3.20
2014,11,19,03,36,3.20
2014,11,19,03,37,3.30
2014,11,19,03,38,3.30
2014,11,19,03,39,3.30
2014,11,19,03,40,3.30
2014,11,19,03,41,3.30
2014,11,19,03,42,3.30
2014,11,19,03,43,3.30
2014,11,19,03,44,3.30
2014,11,19,03,45,3.30
2014,11,19,03,46,3.30
2014,11,19,03,47,3.30
2014,11,19,03,48,3.30
2014,11,19,03,49,3.20
2014,11,19,03,50,3.20
2014,11,19,03,51,3.10
2014,11,19,03,52,3.10
2014,11,19,03,53,3.10
2014,11,19,03,54,3.10
2014,11,19,03,55,3.10
2014,11,19,03,56,3.10
2014,11,19,03,57,3.10
2014,11,19,03,58,3.10
2014,11,19,03,59,3.10
2014,11,19,04,00,3.10
2014,11,19,04,01,3.10
2014,11,19,04,02,3.20
2014,11,19,04,03,3.20
2014,11,19,04,04,3.30
2014,11,19,04,05,3.30
2014,11,19,04,06,3.40
2014,11,19,04,07,3.40
2014,11,19,04,08,3.50
2014,11,19,04,09,3.50
2014,11,19,04,10,3.50
2014,11,19,04,11,3.50
2014,11,19,04,12,3.50
2014,11,19,04,13,3.40
2014,11,19,04,14,3.40
2014,11,19,04,15,3.40
2014,11,19,04,16,3.40
2014,11,19,04,17,3.40
2014,11,19,04,18,3.40
2014,11,19,04,19,3.50
2014,11,19,04,20,3.50
2014,11,19,04,21,3.50
2014,11,19,04,22,3.50
2014,11,19,04,23,3.50
2014,11,19,04,24,3.50
2014,11,19,04,25,3.50
2014,11,19,04,26,3.40
2014,11,19,04,27,3.40
2014,11,19,04,28,3.40
2014,11,19,04,29,3.40
2014,11,19,04,30,3.40
2014,11,19,04,31,3.40
2014,11,19,04,32,3.40
2014,11,19,04,33,3.40
2014,11,19,04,34,3.50
2014,11,19,04,35,3.50
2014,11,19,04,36,3.50
2014,11,19,04,37,3.50
2014,11,19,04,38,3.50
2014,11,19,04,39,3.60
2014,11,19,04,40,3.60
2014,11,19,04,41,3.60
2014,11,19,04,42,3.60
2014,11,19,04,43,3.60
2014,11,19,04,44,3.70
2014,11,19,04,45,3.70
2014,11,19,04,46,3.70
2014,11,19,04,47,3.70
2014,11,19,04,48,3.70
2014,11,19,04,49,3.70
2014,11,19,04,50,3.70
2014,11,19,04,51,3.70
2014,11,19,04,52,3.70
2014,11,19,04,53,3.70
2014,11,19,04,54,3.60
2014,11,19,04,55,3.60
2014,11,19,04,56,3.60
2014,11,19,04,57,3.50
2014,11,19,04,58,3.50
2014,11,19,04,59,3.40
2014,11,19,05,00,3.40
2014,11,19,05,01,3.40
2014,11,19,05,02,3.40
2014,11,19,05,03,3.40
2014,11,19,05,04,3.40
2014,11,19,05,05,3.40
2014,11,19,05,06,3.40
2014,11,19,05,07,3.30
2014,11,19,05,08,3.30
2014,11,19,05,09,3.30
2014,11,19,05,10,3.30
2014,11,19,05,11,3.30
2014,11,19,05,12,3.30
2014,11,19,05,13,3.30
2014,11,19,05,14,3.30
2014,11,19,05,15,3.40
2014,11,19,05,16,3.40
2014,11,19,05,17,3.50
2014,11,19,05,18,3.60
2014,11,19,05,19,3.60
2014,11,19,05,20,3.60
2014,11,19,05,21,3.60
2014,11,19,05,22,3.50
2014,11,19,05,23,3.50
2014,11,19,05,24,3.40
2014,11,19,05,25,3.40
2014,11,19,05,26,3.30
2014,11,19,05,27,3.30
2014,11,19,05,28,3.30
2014,11,19,05,29,3.30
2014,11,19,05,30,3.30
2014,11,19,05,31,3.40
2014,11,19,05,32,3.40
2014,11,19,05,33,3.40
2014,11,19,05,34,3.50
2014,11,19,05,35,3.40
2014,11,19,05,36,3.40
2014,11,19,05,37,3.40
2014,11,19,05,38,3.30
2014,11,19,05,39,3.30
2014,11,19,05,40,3.30
2014,11,19,05,41,3.30
2014,11,19,05,42,3.30
2014,11,19,05,43,3.30
2014,11,19,05,44,3.30
2014,11,19,05,45,3.30
2014,11,19,05,46,3.30
2014,11,19,05,47,3.30
2014,11,19,05,48,3.30
2014,11,19,05,49,3.30
2014,11,19,05,50,3.30
2014,11,19,05,51,3.30
2014,11,19,05,52,3.30
2014,11,19,05,53,3.30
2014,11,19,05,54,3.30
2014,11,19,05,55,3.30
2014,11,19,05,56,3.30
2014,11,19,05,57,3.30
2014,11,19,05,58,3.30
2014,11,19,05,59,3.30
2014,11,19,06,00,3.40
2014,11,19,06,01,3.40
2014,11,19,06,02,3.40
2014,11,19,06,03,3.40
2014,11,19,06,04,3.50
2014,11,19,06,05,3.50
2014,11,19,06,06,3.50
2014,11,19,06,07,3.50
2014,11,19,06,08,3.40
2014,11,19,06,09,3.40
2014,11,19,06,10,3.40
2014,11,19,06,11,3.40
2014,11,19,06,12,3.40
2014,11,19,06,13,3.40
2014,11,19,06,14,3.40
2014,11,19,06,15,3.30
2014,11,19,06,16,3.30
2014,11,19,06,17,3.20
2014,11,19,06,18,3.20
2014,11,19,06,19,3.20
2014,11,19,06,20,3.20
2014,11,19,06,21,3.20
2014,11,19,06,22,3.20
2014,11,19,06,23,3.20
2014,11,19,06,24,3.30
2014,11,19,06,25,3.30
2014,11,19,06,26,3.30
2014,11,19,06,27,3.30
2014,11,19,06,28,3.30
2014,11,19,06,29,3.30
2014,11,19,06,30,3.30
2014,11,19,06,31,3.30
2014,11,19,06,32,3.30
2014,11,19,06,33,3.30
2014,11,19,06,34,3.30
2014,11,19,06,35,3.30
2014,11,19,06,36,3.20
2014,11,19,06,37,3.20
2014,11,19,06,38,3.20
2014,11,19,06,39,3.30
2014,11,19,06,40,3.30
2014,11,19,06,41,3.30
2014,11,19,06,42,3.30
2014,11,19,06,43,3.30
2014,11,19,06,44,3.30
2014,11,19,06,45,3.30
2014,11,19,06,46,3.30
2014,11,19,06,47,3.30
2014,11,19,06,48,3.30
2014,11,19,06,49,3.30
2014,11,19,06,50,3.30
2014,11,19,06,51,3.30
2014,11,19,06,52,3.30
2014,11,19,06,53,3.30
2014,11,19,06,54,3.40
2014,11,19,06,55,3.40
2014,11,19,06,56,3.40
2014,11,19,06,57,3.40
2014,11,19,06,58,3.40
2014,11,19,06,59,3.40
2014,11,19,07,00,3.40
2014,11,19,07,01,3.30
2014,11,19,07,02,3.30
2014,11,19,07,03,3.30
2014,11,19,07,04,3.30
2014,11,19,07,05,3.30
2014,11,19,07,06,3.30
2014,11,19,07,07,3.30
2014,11,19,07,08,3.20
2014,11,19,07,09,3.20
2014,11,19,07,10,3.20
2014,11,19,07,11,3.20
2014,11,19,07,12,3.20
2014,11,19,07,13,3.20
2014,11,19,07,14,3.20
2014,11,19,07,15,3.20
2014,11,19,07,16,3.20
2014,11,19,07,17,3.20
2014,11,19,07,18,3.20
2014,11,19,07,19,3.20
2014,11,19,07,20,3.20
2014,11,19,07,21,3.20
2014,11,19,07,22,3.20
2014,11,19,07,23,3.30
2014,11,19,07,24,3.30
2014,11,19,07,25,3.30
2014,11,19,07,26,3.30
2014,11,19,07,27,3.20
2014,11,19,07,28,3.20
2014,11,19,07,29,3.20
2014,11,19,07,30,3.20
2014,11,19,07,31,3.20
2014,11,19,07,32,3.20
2014,11,19,07,33,3.20
2014,11,19,07,34,3.30
2014,11,19,07,35,3.30
2014,11,19,07,36,3.30
2014,11,19,07,37,3.30
2014,11,19,07,38,3.30
2014,11,19,07,39,3.30
2014,11,19,07,40,3.30
2014,11,19,07,41,3.20
2014,11,19,07,42,3.20
2014,11,19,07,43,3.20
2014,11,19,07,44,3.20
2014,11,19,07,45,3.20
2014,11,19,07,46,3.20
2014,11,19,07,47,3.20
2014,11,19,07,48,3.20
2014,11,19,07,49,3.30
2014,11,19,07,50,3.30
2014,11,19,07,51,3.40
2014,11,19,07,52,3.40
2014,11,19,07,53,3.50
2014,11,19,07,54,3.50
2014,11,19,07,55,3.60
2014,11,19,07,56,3.60
2014,11,19,07,57,3.70
2014,11,19,07,58,3.70
2014,11,19,07,59,3.70
2014,11,19,08,00,3.70
2014,11,19,08,01,3.60
2014,11,19,08,02,3.60
2014,11,19,08,03,3.50
2014,11,19,08,04,3.50
2014,11,19,08,05,3.50
2014,11,19,08,06,3.40
2014,11,19,08,07,3.40
2014,11,19,08,08,3.40
2014,11,19,08,09,3.40
2014,11,19,08,10,3.40
2014,11,19,08,11,3.30
2014,11,19,08,12,3.40
2014,11,19,08,13,3.40
2014,11,19,08,14,3.40
2014,11,19,08,15,3.40
2014,11,19,08,16,3.40
2014,11,19,08,17,3.40
2014,11,19,08,18,3.40
2014,11,19,08,19,3.40
2014,11,19,08,20,3.40
2014,11,19,08,21,3.50
2014,11,19,08,22,3.50
2014,11,19,08,23,3.50
2014,11,19,08,24,3.50
2014,11,19,08,25,3.50
2014,11,19,08,26,3.50
2014,11,19,08,27,3.60
2014,11,19,08,28,3.60
2014,11,19,08,29,3.60
2014,11,19,08,30,3.60
2014,11,19,08,31,3.60
2014,11,19,08,32,3.60
2014,11,19,08,33,3.60
2014,11,19,08,34,3.70
2014,11,19,08,35,3.70
2014,11,19,08,36,3.80
2014,11,19,08,37,3.90
2014,11,19,08,38,4.00
2014,11,19,08,39,4.00
2014,11,19,08,40,4.10
2014,11,19,08,41,4.10
2014,11,19,08,42,4.10
2014,11,19,08,43,4.10
2014,11,19,08,44,4.10
2014,11,19,08,45,4.10
2014,11,19,08,46,4.10
2014,11,19,08,47,4.10
2014,11,19,08,48,4.10
2014,11,19,08,49,4.10
2014,11,19,08,50,4.20
2014,11,19,08,51,4.20
2014,11,19,08,52,4.20
2014,11,19,08,53,4.30
2014,11,19,08,54,4.30
2014,11,19,08,55,4.40
2014,11,19,08,56,4.50
2014,11,19,08,57,4.50
2014,11,19,08,58,4.60
2014,11,19,08,59,4.60
2014,11,19,09,00,4.60
2014,11,19,09,01,4.70
2014,11,19,09,02,4.70
2014,11,19,09,03,4.70
2014,11,19,09,04,4.80
2014,11,19,09,05,4.80
2014,11,19,09,06,4.80
2014,11,19,09,07,4.80
2014,11,19,09,08,4.80
2014,11,19,09,09,4.90
2014,11,19,09,10,4.90
2014,11,19,09,11,4.90
2014,11,19,09,12,4.90
2014,11,19,09,13,5.00
2014,11,19,09,14,5.00
2014,11,19,09,15,5.00
2014,11,19,09,16,5.10
2014,11,19,09,17,5.10
2014,11,19,09,18,5.10
2014,11,19,09,19,5.10
2014,11,19,09,20,5.10
2014,11,19,09,21,5.20
2014,11,19,09,22,5.20
2014,11,19,09,23,5.20
2014,11,19,09,24,5.20
2014,11,19,09,25,5.20
2014,11,19,09,26,5.30
2014,11,19,09,27,5.30
2014,11,19,09,28,5.30
2014,11,19,09,29,5.30
2014,11,19,09,30,5.30
2014,11,19,09,31,5.30
2014,11,19,09,32,5.40
2014,11,19,09,33,5.40
2014,11,19,09,34,5.40
2014,11,19,09,35,5.40
2014,11,19,09,36,5.50
2014,11,19,09,37,5.50
2014,11,19,09,38,5.50
2014,11,19,09,39,5.60
2014,11,19,09,40,5.60
2014,11,19,09,41,5.60
2014,11,19,09,42,5.70
2014,11,19,09,43,5.70
2014,11,19,09,44,5.70
2014,11,19,09,45,5.80
2014,11,19,09,46,5.80
2014,11,19,09,47,5.90
2014,11,19,09,48,5.90
2014,11,19,09,49,5.90
2014,11,19,09,50,6.00
2014,11,19,09,51,6.00
2014,11,19,09,52,6.10
2014,11,19,09,53,6.10
2014,11,19,09,54,6.10
2014,11,19,09,55,6.20
2014,11,19,09,56,6.20
2014,11,19,09,57,6.30
2014,11,19,09,58,6.30
2014,11,19,09,59,6.30
2014,11,19,10,00,6.40
2014,11,19,10,01,6.40
2014,11,19,10,02,6.50
2014,11,19,10,03,6.50
2014,11,19,10,04,6.60
2014,11,19,10,05,6.60
2014,11,19,10,06,6.70
2014,11,19,10,07,6.70
2014,11,19,10,08,6.80
2014,11,19,10,09,6.80
2014,11,19,10,10,6.90
2014,11,19,10,11,6.90
2014,11,19,10,12,6.90
2014,11,19,10,13,6.90
2014,11,19,10,14,7.00
2014,11,19,10,15,7.00
2014,11,19,10,16,7.10
2014,11,19,10,17,7.20
2014,11,19,10,18,7.20
2014,11,19,10,19,7.20
2014,11,19,10,20,7.30
2014,11,19,10,21,7.40
2014,11,19,10,22,7.40
2014,11,19,10,23,7.50
2014,11,19,10,24,7.60
2014,11,19,10,25,7.70
2014,11,19,10,26,7.70
2014,11,19,10,27,7.80
2014,11,19,10,28,7.80
2014,11,19,10,29,7.90
2014,11,19,10,30,7.90
2014,11,19,10,31,7.90
2014,11,19,10,32,7.90
2014,11,19,10,33,8.00
2014,11,19,10,34,8.00
2014,11,19,10,35,8.10
2014,11,19,10,36,8.10
2014,11,19,10,37,8.10
2014,11,19,10,38,8.20
2014,11,19,10,39,8.30
2014,11,19,10,40,8.40
2014,11,19,10,41,8.50
2014,11,19,10,42,8.70
2014,11,19,10,43,8.80
2014,11,19,10,44,8.90
2014,11,19,10,45,9.00
2014,11,19,10,46,9.10
2014,11,19,10,47,9.20
2014,11,19,10,48,9.20
2014,11,19,10,49,9.30
2014,11,19,10,50,9.30
2014,11,19,10,51,9.30
2014,11,19,10,52,9.30
2014,11,19,10,53,9.30
2014,11,19,10,54,9.30
2014,11,19,10,55,9.30
2014,11,19,10,56,9.40
2014,11,19,10,57,9.40
2014,11,19,10,58,9.50
2014,11,19,10,59,9.60
2014,11,19,11,00,9.60
2014,11,19,11,01,9.70
2014,11,19,11,02,9.80
2014,11,19,11,03,9.80
2014,11,19,11,04,9.80
2014,11,19,11,05,9.80
2014,11,19,11,06,9.70
2014,11,19,11,07,9.70
2014,11,19,11,08,9.70
2014,11,19,11,09,9.70
2014,11,19,11,10,9.70
2014,11,19,11,11,9.70
2014,11,19,11,12,9.70
2014,11,19,11,13,9.80
2014,11,19,11,14,9.80
2014,11,19,11,15,9.80
2014,11,19,11,16,9.80
2014,11,19,11,17,9.80
2014,11,19,11,18,9.70
2014,11,19,11,19,9.80
2014,11,19,11,20,9.80
2014,11,19,11,21,9.90
2014,11,19,11,22,9.90
2014,11,19,11,23,10.00
2014,11,19,11,24,10.10
2014,11,19,11,25,10.10
2014,11,19,11,26,10.20
2014,11,19,11,27,10.20
2014,11,19,11,28,10.30
2014,11,19,11,29,10.30
2014,11,19,11,30,10.40
2014,11,19,11,31,10.40
2014,11,19,11,32,10.50
2014,11,19,11,33,10.60
2014,11,19,11,34,10.60
2014,11,19,11,35,10.70
2014,11,19,11,36,10.80
2014,11,19,11,37,10.80
2014,11,19,11,38,10.90
2014,11,19,11,39,10.90
2014,11,19,11,40,10.90
2014,11,19,11,41,11.00
2014,11,19,11,42,11.10
2014,11,19,11,43,11.10
2014,11,19,11,44,11.20
2014,11,19,11,45,11.20
2014,11,19,11,46,11.20
2014,11,19,11,47,11.20
2014,11,19,11,48,11.10
2014,11,19,11,49,11.10
2014,11,19,11,50,11.10
2014,11,19,11,51,11.10
2014,11,19,11,52,11.10
2014,11,19,11,53,11.10
2014,11,19,11,54,11.20
2014,11,19,11,55,11.20
2014,11,19,11,56,11.20
2014,11,19,11,57,11.20
2014,11,19,11,58,11.20
2014,11,19,11,59,11.30
2014,11,19,12,00,11.30
2014,11,19,12,01,11.20
2014,11,19,12,02,11.20
2014,11,19,12,03,11.20
2014,11,19,12,04,11.20
2014,11,19,12,05,11.10
2014,11,19,12,06,11.10
2014,11,19,12,07,11.10
2014,11,19,12,08,11.10
2014,11,19,12,09,11.10
2014,11,19,12,10,11.10
2014,11,19,12,11,11.20
2014,11,19,12,12,11.20
2014,11,19,12,13,11.30
2014,11,19,12,14,11.30
2014,11,19,12,15,11.40
2014,11,19,12,16,11.50
2014,11,19,12,17,11.50
2014,11,19,12,18,11.60
2014,11,19,12,19,11.60
2014,11,19,12,20,11.60
2014,11,19,12,21,11.60
2014,11,19,12,22,11.60
2014,11,19,12,23,11.60
2014,11,19,12,24,11.60
2014,11,19,12,25,11.60
2014,11,19,12,26,11.60
2014,11,19,12,27,11.70
2014,11,19,12,28,11.70
2014,11,19,12,29,11.70
2014,11,19,12,30,11.70
2014,11,19,12,31,11.70
2014,11,19,12,32,11.80
2014,11,19,12,33,11.80
2014,11,19,12,34,11.80
2014,11,19,12,35,11.90
2014,11,19,12,36,11.90
2014,11,19,12,37,12.00
2014,11,19,12,38,12.10
2014,11,19,12,39,12.10
2014,11,19,12,40,12.20
2014,11,19,12,41,12.20
2014,11,19,12,42,12.10
2014,11,19,12,43,12.00
2014,11,19,12,44,11.90
2014,11,19,12,45,11.80
2014,11,19,12,46,11.80
2014,11,19,12,47,11.70
2014,11,19,12,48,11.60
2014,11,19,12,49,11.60
2014,11,19,12,50,11.60
2014,11,19,12,51,11.70
2014,11,19,12,52,11.70
2014,11,19,12,53,11.70
2014,11,19,12,54,11.70
2014,11,19,12,55,11.70
2014,11,19,12,56,11.70
2014,11,19,12,57,11.70
2014,11,19,12,58,11.70
2014,11,19,12,59,11.70
2014,11,19,13,00,11.70
2014,11,19,13,01,11.70
2014,11,19,13,02,11.70
2014,11,19,13,03,11.60
2014,11,19,13,04,11.50
2014,11,19,13,05,11.50
2014,11,19,13,06,11.40
2014,11,19,13,07,11.40
2014,11,19,13,08,11.30
2014,11,19,13,09,11.30
2014,11,19,13,10,11.30
2014,11,19,13,11,11.20
2014,11,19,13,12,11.10
2014,11,19,13,13,11.00
2014,11,19,13,14,11.00
2014,11,19,13,15,11.00
2014,11,19,13,16,11.00
2014,11,19,13,17,11.10
2014,11,19,13,18,11.20
2014,11,19,13,19,11.30
2014,11,19,13,20,11.40
2014,11,19,13,21,11.50
2014,11,19,13,22,11.60
2014,11,19,13,23,11.50
2014,11,19,13,24,11.50
2014,11,19,13,25,11.40
2014,11,19,13,26,11.30
2014,11,19,13,27,11.30
2014,11,19,13,28,11.20
2014,11,19,13,29,11.20
2014,11,19,13,30,11.20
2014,11,19,13,31,11.20
2014,11,19,13,32,11.30
2014,11,19,13,33,11.30
2014,11,19,13,34,11.40
2014,11,19,13,35,11.40
2014,11,19,13,36,11.50
2014,11,19,13,37,11.50
2014,11,19,13,38,11.50
2014,11,19,13,39,11.40
2014,11,19,13,40,11.40
2014,11,19,13,41,11.30
2014,11,19,13,42,11.30
2014,11,19,13,43,11.30
2014,11,19,13,44,11.20
2014,11,19,13,45,11.20
2014,11,19,13,46,11.20
2014,11,19,13,47,11.20
2014,11,19,13,48,11.20
2014,11,19,13,49,11.20
2014,11,19,13,50,11.20
2014,11,19,13,51,11.20
2014,11,19,13,52,11.20
2014,11,19,13,53,11.20
2014,11,19,13,54,11.10
2014,11,19,13,55,11.10
2014,11,19,13,56,11.00
2014,11,19,13,57,11.00
2014,11,19,13,58,10.90
2014,11,19,13,59,10.90
2014,11,19,14,00,10.90
2014,11,19,14,01,10.90
2014,11,19,14,02,10.80
2014,11,19,14,03,10.80
2014,11,19,14,04,10.80
2014,11,19,14,05,10.70
2014,11,19,14,06,10.70
2014,11,19,14,07,10.70
2014,11,19,14,08,10.70
2014,11,19,14,09,10.70
2014,11,19,14,10,10.70
2014,11,19,14,11,10.70
2014,11,19,14,12,10.60
2014,11,19,14,13,10.60
2014,11,19,14,14,10.60
2014,11,19,14,15,10.60
2014,11,19,14,16,10.70
2014,11,19,14,17,10.70
2014,11,19,14,18,10.80
2014,11,19,14,19,10.80
2014,11,19,14,20,10.80
2014,11,19,14,21,10.80
2014,11,19,14,22,10.80
2014,11,19,14,23,10.80
2014,11,19,14,24,10.80
2014,11,19,14,25,10.90
2014,11,19,14,26,10.90
2014,11,19,14,27,10.90
2014,11,19,14,28,11.00
2014,11,19,14,29,11.00
2014,11,19,14,30,11.10
2014,11,19,14,31,11.10
2014,11,19,14,32,11.10
2014,11,19,14,33,11.10
2014,11,19,14,34,11.10
2014,11,19,14,35,11.20
2014,11,19,14,36,11.10
2014,11,19,14,37,11.10
2014,11,19,14,38,11.00
2014,11,19,14,39,11.00
2014,11,19,14,40,10.90
2014,11,19,14,41,10.90
2014,11,19,14,42,10.80
2014,11,19,14,43,10.70
2014,11,19,14,44,10.70
2014,11,19,14,45,10.60
2014,11,19,14,46,10.50
2014,11,19,14,47,10.50
2014,11,19,14,48,10.40
2014,11,19,14,49,10.30
2014,11,19,14,50,10.30
2014,11,19,14,51,10.20
2014,11,19,14,52,10.10
2014,11,19,14,53,10.10
2014,11,19,14,54,10.10
2014,11,19,14,55,10.00
2014,11,19,14,56,10.00
2014,11,19,14,57,9.90
2014,11,19,14,58,9.90
2014,11,19,14,59,9.90
2014,11,19,15,00,9.90
2014,11,19,15,01,9.80
2014,11,19,15,02,9.80
2014,11,19,15,03,9.80
2014,11,19,15,04,9.80
2014,11,19,15,05,9.80
2014,11,19,15,06,9.80
2014,11,19,15,07,9.80
2014,11,19,15,08,9.80
2014,11,19,15,09,9.80
2014,11,19,15,10,9.80
2014,11,19,15,11,9.80
2014,11,19,15,12,9.80
2014,11,19,15,13,9.70
2014,11,19,15,14,9.70
2014,11,19,15,15,9.70
2014,11,19,15,16,9.70
2014,11,19,15,17,9.70
2014,11,19,15,18,9.70
2014,11,19,15,19,9.70
2014,11,19,15,20,9.70
2014,11,19,15,21,9.70
2014,11,19,15,22,9.70
2014,11,19,15,23,9.70
2014,11,19,15,24,9.70
2014,11,19,15,25,9.60
2014,11,19,15,26,9.60
2014,11,19,15,27,9.60
2014,11,19,15,28,9.60
2014,11,19,15,29,9.60
2014,11,19,15,30,9.60
2014,11,19,15,31,9.50
2014,11,19,15,32,9.50
2014,11,19,15,33,9.40
2014,11,19,15,34,9.40
2014,11,19,15,35,9.40
2014,11,19,15,36,9.30
2014,11,19,15,37,9.30
2014,11,19,15,38,9.20
2014,11,19,15,39,9.20
2014,11,19,15,40,9.10
2014,11,19,15,41,9.10
2014,11,19,15,42,9.00
2014,11,19,15,43,9.00
2014,11,19,15,44,8.90
2014,11,19,15,45,8.90
2014,11,19,15,46,8.80
2014,11,19,15,47,8.80
2014,11,19,15,48,8.80
2014,11,19,15,49,8.70
2014,11,19,15,50,8.70
2014,11,19,15,51,8.70
2014,11,19,15,52,8.70
2014,11,19,15,53,8.70
2014,11,19,15,54,8.70
2014,11,19,15,55,8.60
2014,11,19,15,56,8.60
2014,11,19,15,57,8.60
2014,11,19,15,58,8.50
2014,11,19,15,59,8.50
2014,11,19,16,00,8.40
2014,11,19,16,01,8.40
2014,11,19,16,02,8.40
2014,11,19,16,03,8.40
2014,11,19,16,04,8.30
2014,11,19,16,05,8.30
2014,11,19,16,06,8.30
2014,11,19,16,07,8.30
2014,11,19,16,08,8.30
2014,11,19,16,09,8.30
2014,11,19,16,10,8.30
2014,11,19,16,11,8.20
2014,11,19,16,12,8.20
2014,11,19,16,13,8.20
2014,11,19,16,14,8.10
2014,11,19,16,15,8.00
2014,11,19,16,16,8.00
2014,11,19,16,17,7.90
2014,11,19,16,18,7.80
2014,11,19,16,19,7.80
2014,11,19,16,20,7.80
2014,11,19,16,21,7.80
2014,11,19,16,22,7.80
2014,11,19,16,23,7.70
2014,11,19,16,24,7.70
2014,11,19,16,25,7.70
2014,11,19,16,26,7.70
2014,11,19,16,27,7.60
2014,11,19,16,28,7.60
2014,11,19,16,29,7.60
2014,11,19,16,30,7.50
2014,11,19,16,31,7.50
2014,11,19,16,32,7.50
2014,11,19,16,33,7.40
2014,11,19,16,34,7.40
2014,11,19,16,35,7.40
2014,11,19,16,36,7.40
2014,11,19,16,37,7.40
2014,11,19,16,38,7.30
2014,11,19,16,39,7.30
2014,11,19,16,40,7.20
2014,11,19,16,41,7.20
2014,11,19,16,42,7.20
2014,11,19,16,43,7.10
2014,11,19,16,44,7.10
2014,11,19,16,45,7.10
2014,11,19,16,46,7.00
2014,11,19,16,47,7.00
2014,11,19,16,48,7.00
2014,11,19,16,49,6.90
2014,11,19,16,50,6.90
2014,11,19,16,51,6.90
2014,11,19,16,52,6.80
2014,11,19,16,53,6.80
2014,11,19,16,54,6.80
2014,11,19,16,55,6.70
2014,11,19,16,56,6.70
2014,11,19,16,57,6.70
2014,11,19,16,58,6.70
2014,11,19,16,59,6.60
2014,11,19,17,00,6.60
2014,11,19,17,01,6.60
2014,11,19,17,02,6.50
2014,11,19,17,03,6.50
2014,11,19,17,04,6.40
2014,11,19,17,05,6.40
2014,11,19,17,06,6.40
2014,11,19,17,07,6.30
2014,11,19,17,08,6.30
2014,11,19,17,09,6.30
2014,11,19,17,10,6.30
2014,11,19,17,11,6.20
2014,11,19,17,12,6.20
2014,11,19,17,13,6.20
2014,11,19,17,14,6.20
2014,11,19,17,15,6.20
2014,11,19,17,16,6.10
2014,11,19,17,17,6.10
2014,11,19,17,18,6.10
2014,11,19,17,19,6.10
2014,11,19,17,20,6.10
2014,11,19,17,21,6.10
2014,11,19,17,22,6.10
2014,11,19,17,23,6.10
2014,11,19,17,24,6.10
2014,11,19,17,25,6.00
2014,11,19,17,26,6.00
2014,11,19,17,27,6.00
2014,11,19,17,28,5.90
2014,11,19,17,29,5.90
2014,11,19,17,30,5.90
2014,11,19,17,31,5.90
2014,11,19,17,32,5.90
2014,11,19,17,33,5.80
2014,11,19,17,34,5.80
2014,11,19,17,35,5.80
2014,11,19,17,36,5.80
2014,11,19,17,37,5.80
2014,11,19,17,38,5.80
2014,11,19,17,39,5.80
2014,11,19,17,40,5.80
2014,11,19,17,41,5.80
2014,11,19,17,42,5.70
2014,11,19,17,43,5.70
2014,11,19,17,44,5.70
2014,11,19,17,45,5.70
2014,11,19,17,46,5.70
2014,11,19,17,47,5.80
2014,11,19,17,48,5.70
2014,11,19,17,49,5.70
2014,11,19,17,50,5.70
2014,11,19,17,51,5.70
2014,11,19,17,52,5.70
2014,11,19,17,53,5.70
2014,11,19,17,54,5.60
2014,11,19,17,55,5.60
2014,11,19,17,56,5.60
2014,11,19,17,57,5.60